Location: Bois Neuf
(42.7667°N, 0.6333°E)
Time: 21:57:46
(UTC+00:00)

Cosmos 1937 Rocket - Pass Details

Date: 27 September 2020
Orbit: 747 x 779 km, 74.0° (Epoch: 26 October)

Event Time Altitude Azimuth Distance (km) Brightness Sun altitude
Rises 18:12:28 0° 229° (SW) 3,225 7.5 -5.8°
Reaches altitude 10° 18:15:09 10° 241° (WSW) 2,297 7.0 -6.3°
Maximum altitude 18:19:37 28° 300° (WNW) 1,401 5.7 -7.1°
Drops below altitude 10° 18:24:04 10° 359° (N) 2,291 6.0 -8.0°
Sets 18:26:45 0° 11° (NNE) 3,215 6.7 -8.4°
